YAOGAN-22

Last updated on Sun Jun 21 2026 00:02:52 GMT+0000 (Coordinated Universal Time)

1 40275U 14063A 26171.37983304 -.00000017 00000+0 79445-4 0 9997 2 40275 100.7729 322.7060 0006417 178.2010 181.9125 13.15531032560230
UTC large
Height (km)
Speed (km/s)
/
Latitude / Longitude
Inclination (degrees)
Orbital Period (minutes)
Azimuth
Elevation
Range (km)
Doppler Factor

Next 0 passes for location: London (51.5072 / 0.1276)

No passes found over London.
YAOGAN-22